Alvadore, OR

11:07 PM PST on January 19, 2017 (GMT -0800)
Mahlon Sweet

Weather History for KEUG - February, 2013

Change the Weather History Date:

Friday, February 8, 2013

  Actual Average Record
Temperature  
Mean Temperature 41 °F 42 °F  
Max Temperature 45 °F 50 °F 67 °F (1919)
Min Temperature 37 °F 35 °F 8 °F (1989)
Degree Days  
Heating Degree Days 24 23  
Month to date heating degree days 169 184  
Since 1 July heating degree days 2662 2894  
Cooling Degree Days 0 0  
Month to date cooling degree days 0 0  
Year to date cooling degree days 0 0  
Moisture  
Dew Point 36 °F    
Average Humidity 85    
Maximum Humidity 100    
Minimum Humidity 70    
Precipitation  
Precipitation T in 0.20 in 1.58 in (1986)
Month to date precipitation 0.55 1.56  
Year to date precipitation 1.90 8.43  
Snow  
Snow 0.00 in - - ()
Month to date snowfall 0.0  
Since 1 July snowfall 0.0  
Snow Depth 0.00 in    
Sea Level Pressure  
Sea Level Pressure 30.24 in    
Wind  
Wind Speed 6 mph (North)    
Max Wind Speed 14 mph    
Max Gust Speed 25 mph    
Visibility 7 miles    
Events      
T = Trace of Precipitation, MM = Missing Value Source: NWS Daily Summary

Daily Weather History Graph

Daily Weather History Graph

Search for Another Location

Airport or City:

Trip Planner

Search our weather history database for the weather conditions in past years. The results will help you decide how hot, cold, wet, or windy it might be!

Date:

Astronomy

Feb. 08, 2013 Rise Set
Actual Time 7:21 AM PST 5:33 PM PST
Civil Twilight 6:51 AM PST 6:03 PM PST
Nautical Twilight 6:17 AM PST 6:37 PM PST
Astronomical Twilight 5:43 AM PST 7:11 PM PST
Moon 5:56 AM PST (2/8) 4:12 PM PST (2/8)
Length of Visible Light 11h 12m
Length of Day
10h 11m
Waning Crescent, 3% of the Moon is Illuminated
Feb 8
Waning Crescent
Feb 9
New
Feb 17
First Quarter
Feb 25
Full
Mar 4
Last Quarter

Hourly Weather History & Observations

Time (PST) Temp. Windchill Dew Point Humidity Pressure Visibility Wind Dir Wind Speed Gust Speed Precip Events Conditions
12:10 AM 39.2 °F 33.6 °F 37.4 °F 93% 30.14 in 10.0 mi North 8.1 mph - N/A   Overcast
12:22 AM 39.2 °F 33.6 °F 37.4 °F 93% 30.15 in 10.0 mi North 8.1 mph - N/A   Overcast
12:33 AM 39.2 °F 35.0 °F 37.4 °F 93% 30.15 in 10.0 mi North 5.8 mph - N/A   Overcast
12:49 AM 39.2 °F 35.9 °F 37.4 °F 93% 30.15 in 10.0 mi North 4.6 mph - N/A   Overcast
12:54 AM 39.0 °F 34.8 °F 37.0 °F 93% 30.16 in 10.0 mi North 5.8 mph - N/A   Overcast
1:08 AM 39.2 °F 35.9 °F 37.4 °F 93% 30.15 in 10.0 mi NNE 4.6 mph - N/A   Overcast
1:23 AM 39.2 °F 35.0 °F 37.4 °F 93% 30.15 in 10.0 mi NNE 5.8 mph - N/A   Overcast
1:34 AM 39.2 °F 33.6 °F 37.4 °F 93% 30.15 in 10.0 mi NE 8.1 mph - N/A   Overcast
1:54 AM 39.0 °F 32.8 °F 37.0 °F 93% 30.17 in 10.0 mi NNE 9.2 mph - N/A   Overcast
2:26 AM 39.2 °F 35.0 °F 37.4 °F 93% 30.17 in 10.0 mi NNE 5.8 mph - N/A   Overcast
2:54 AM 39.0 °F 34.8 °F 37.0 °F 93% 30.18 in 9.0 mi North 5.8 mph - N/A   Overcast
3:54 AM 37.9 °F 33.5 °F 37.0 °F 97% 30.18 in 8.0 mi North 5.8 mph - N/A   Overcast
4:27 AM 37.4 °F 30.3 °F 35.6 °F 93% 30.18 in 6.0 mi North 10.4 mph - N/A   Overcast
4:54 AM 37.0 °F 30.4 °F 36.0 °F 96% 30.20 in 7.0 mi North 9.2 mph - N/A   Overcast
5:54 AM 37.0 °F 29.8 °F 36.0 °F 96% 30.22 in 4.0 mi North 10.4 mph - N/A   Overcast
6:16 AM 37.4 °F 31.4 °F 35.6 °F 93% 30.22 in 2.5 mi North 8.1 mph - N/A   Overcast
6:54 AM 37.0 °F 29.8 °F 36.0 °F 96% 30.25 in 2.0 mi NNE 10.4 mph - N/A   Overcast
7:14 AM 37.4 °F 32.1 °F 35.6 °F 93% 30.24 in 3.0 mi NNE 6.9 mph - N/A   Overcast
7:33 AM 37.4 °F 32.8 °F 35.6 °F 93% 30.24 in 3.0 mi NE 5.8 mph - N/A   Overcast
7:54 AM 37.0 °F 33.3 °F 36.0 °F 96% 30.25 in 2.0 mi NE 4.6 mph - N/A   Overcast
8:28 AM 37.4 °F 32.1 °F 35.6 °F 93% 30.25 in 4.0 mi NNE 6.9 mph - N/A   Overcast
8:50 AM 37.4 °F 32.1 °F 35.6 °F 93% 30.25 in 4.0 mi NNE 6.9 mph - N/A   Overcast
8:54 AM 37.9 °F 32.7 °F 35.1 °F 89% 30.26 in 4.0 mi North 6.9 mph - N/A   Overcast
9:54 AM 37.9 °F 31.5 °F 36.0 °F 93% 30.29 in 2.0 mi North 9.2 mph - N/A   Overcast
10:15 AM 37.4 °F 31.4 °F 35.6 °F 93% 30.29 in 2.0 mi North 8.1 mph - N/A   Overcast
10:54 AM 39.0 °F 33.4 °F 35.1 °F 86% 30.30 in 2.5 mi NNE 8.1 mph - N/A   Overcast
11:07 AM 39.2 °F 32.5 °F 35.6 °F 87% 30.28 in 3.0 mi NNE 10.4 mph - N/A   Mostly Cloudy
11:54 AM 39.9 °F 33.9 °F 35.1 °F 83% 30.30 in 5.0 mi North 9.2 mph - N/A   Overcast
12:54 PM 41.0 °F 35.8 °F 35.1 °F 79% 30.28 in 5.0 mi North 8.1 mph - N/A   Mostly Cloudy
1:54 PM 42.1 °F 37.1 °F 35.1 °F 76% 30.28 in 9.0 mi North 8.1 mph - N/A   Mostly Cloudy
2:54 PM 43.0 °F 38.8 °F 35.1 °F 74% 30.27 in 10.0 mi North 6.9 mph - N/A   Mostly Cloudy
3:14 PM 44.6 °F 41.4 °F 35.6 °F 71% 30.26 in 10.0 mi North 5.8 mph - N/A   Scattered Clouds
3:54 PM 45.0 °F 40.6 °F 35.1 °F 68% 30.27 in 10.0 mi North 8.1 mph - N/A   Scattered Clouds
4:54 PM 43.0 °F 41.3 °F 34.0 °F 71% 30.27 in 10.0 mi NE 3.5 mph - N/A   Scattered Clouds
5:54 PM 37.0 °F 33.3 °F 33.1 °F 86% 30.27 in 10.0 mi NW 4.6 mph - N/A   Scattered Clouds
6:54 PM 39.0 °F 35.7 °F 35.1 °F 86% 30.28 in 10.0 mi WNW 4.6 mph - N/A   Mostly Cloudy
7:54 PM 39.9 °F 37.8 °F 36.0 °F 86% 30.28 in 10.0 mi West 3.5 mph - N/A   Overcast
8:54 PM 39.9 °F - 37.0 °F 89% 30.29 in 10.0 mi Calm Calm - N/A   Overcast
9:54 PM 39.0 °F - 37.0 °F 93% 30.30 in 10.0 mi Calm Calm - N/A   Overcast
10:54 PM 39.0 °F 36.8 °F 37.0 °F 93% 30.30 in 10.0 mi South 3.5 mph - 0.00 in   Overcast
11:54 PM 37.9 °F - 37.0 °F 97% 30.30 in 9.0 mi Calm Calm - N/A   Overcast